Location: Diati
(11.8376°N, 2.5966°E)
Time: 18:16:42
(UTC+00:00)

FUSE - Pass Details

Date: 21 September 2020
Orbit: 742 x 756 km, 25.0° (Epoch: 19 October)

Event Time Altitude Azimuth Distance (km) Brightness Sun altitude
Rises 19:10:41 0° 234° (SW) 3,158 7.9 -21.5°
Reaches altitude 10° 19:13:13 10° 228° (SW) 2,236 7.0 -22.1°
Maximum altitude 19:18:19 49° 154° (SSE) 944 4.2 -23.4°
Enters shadow 19:18:28 49° 148° (SSE) 946 4.2 -23.4°
